Weather Roundup
Issued by NWS

Home | Current Version | Previous Version | Graphics & Text | Print | Product List | Glossary Off
Versions: 1 2 3 4 5 6 7 8 9 10 11 12 13 14 15 16 17 18 19 20 21 22 23 24 25 26 27 28 29 30 31 32 33 34 35 36 37 38 39 40 41 42 43 44 45 46 47 48 49 50

436
NZUS93 KARX 260110
HRRWXR

CURRENT HOURLY OBSERVATIONS ACROSS
MUCH OF THE UPPER MISSISSIPPI VALLEY
NATIONAL WEATHER SERVICE LA CROSSE WI
800 PM CDT WED APR 25 2018


...SOUTHEAST MINNESOTA...


CITY           SKY/WX    TMP DP  RH WIND       PRES   REMARKS
ROCHESTER      FAIR      51  38  60 W7        30.02F
ROCHESTER/MAYO FAIR      55  29  36 W6        30.02S
WINONA         FAIR      54  28  37 CALM      29.99S
AUSTIN         FAIR      54  28  37 CALM      30.02S
ALBERT LEA     FAIR      52  30  43 W3        30.03S
DODGE CENTER   FAIR      54  30  40 W3        30.02S
PRESTON        FAIR      53  26  34 CALM      30.02F
OWATONNA       FAIR      52  34  50 W5        30.02F
FARIBAULT      NOT AVBL
$$

...ELSEWHERE IN MINNESOTA...


CITY           SKY/WX    TMP DP  RH WIND       PRES   REMARKS
MINNEAPOLIS    MOCLDY    56  28  34 W8        30.01F
INTNL FALLS    FAIR      56  29  35 SW5       29.85F
DULUTH         FAIR      52  23  32 SW7       29.94F
RED WING       FAIR      55  18  22 CALM      30.00F
REDWOOD FALLS  CLEAR     52  37  56 S7        30.00F
MANKATO        FAIR      53  34  48 NW3       30.03F
WORTHINGTON    CLEAR     54  35  48 W3        30.02F
FAIRMONT       CLEAR     54  34  46 W3        30.03F
$$

...SOUTHWEST WISCONSIN...


CITY           SKY/WX    TMP DP  RH WIND       PRES   REMARKS
LA CROSSE      FAIR      56  27  32 W3        30.00F
PRAIRIE DU CHI FAIR      58  21  24 NE3       30.01S
BOSCOBEL       FAIR      57  29  34 N3        30.00F
LONE ROCK      FAIR      53  31  42 CALM      30.00S
PLATTEVILLE    FAIR      56  30  37 N5        30.00S
FORT MC COY    FAIR      53  29  40 CALM      30.02S
CAMP DOUGLAS   FAIR      49  28  43 E3        30.00S
MAUSTON-NEW LI FAIR      50  31  47 CALM      30.00S
VIROQUA        FAIR      55  27  34 CALM      30.01S
WIS DELLS      FAIR      53  21  28 CALM      30.00S
$$

...ELSEWHERE IN WISCONSIN...


CITY           SKY/WX    TMP DP  RH WIND       PRES   REMARKS
MILWAUKEE      FAIR      41  28  60 CALM      30.05S
MADISON        FAIR      54  26  34 CALM      30.00S
GREEN BAY      FAIR      51  35  54 S6        30.00F
EAU CLAIRE     FAIR      54  25  32 W5        29.99F
BLACK RVR FLS  FAIR      50  26  38 W3        30.00F
MEDFORD        FAIR      49  27  42 W5        29.99S
WAUSAU         FAIR      51  23  33 W3        29.98S
WIS RAPIDS     FAIR      48  27  44 CALM      30.01F
MARSHFIELD     FAIR      51  30  44 CALM      29.99F
RICE LAKE      FAIR      51  22  31 CALM      30.01F
$$

...NORTHEAST IOWA...


CITY           SKY/WX    TMP DP  RH WIND       PRES   REMARKS
WATERLOO       FAIR      52  33  48 NW7       30.01S
DUBUQUE        FAIR      55  29  36 NW5       30.00S
DECORAH        FAIR      55  30  38 N6        30.00F
MASON CITY     CLEAR     51  36  56 NW6       30.03F
CHARLES CITY   FAIR      54  34  47 N6        30.03S
OELWEIN        FAIR      55  32  41 NW5       30.01F
$$

...ELSEWHERE IN IOWA...


CITY           SKY/WX    TMP DP  RH WIND       PRES   REMARKS
DES MOINES     PTCLDY    62  26  25 N6        30.01S
IOWA CITY      FAIR      62  25  24 N5        30.00F
FORT DODGE     CLEAR     55  32  41 CALM      30.03F
MARSHALLTOWN   CLEAR     56  32  40 N7        30.00F
CEDAR RAPIDS   FAIR      57  29  34 N7        29.99S
$$

...NORTHERN ILLINOIS...


CITY           SKY/WX    TMP DP  RH WIND       PRES   REMARKS
CHICAGO-OHARE  FAIR      42  30  62 NE12      30.04S
CHICAGO-MIDWAY FAIR      43  31  62 NE10      30.04F
MOLINE         FAIR      61  29  29 N3        29.98S
ROCKFORD       FAIR      54  27  35 E7        30.01S
PEORIA         FAIR      60  30  32 CALM      29.98F
$$

NOTE: "FAIR" INDICATES FEW OR NO CLOUDS BELOW 12,000 FEET WITH NO
SIGNIFICANT WEATHER AND/OR OBSTRUCTIONS TO VISIBILITY. WIND
SPEEDS ARE IN MILES-PER-HOUR.




USA.gov is the U.S. government's official web portal to all federal, state and local government web resources and services.